"TOA5","AWS1","CR1000","7964","CR1000.Std.14","CPU:AWS1_114.CR1","64363","TBL110"
"TIMESTAMP","RECORD","Wind_spd_WVc(1)","Wind_spd_WVc(2)","Air_Temp_Avg","Humidity_Avg","SW_upper_Wm2_Avg","Rain_Tot","Press_Avg","Issui_Tot","Depth_cm","SR50A_Raw","Quality","Ground_Temp_Avg(1)","Ground_Temp_Avg(2)","SW_lower_Wm2_Avg","Albedo_Avg","SWC_per(1)","SWC_per(2)","Period(1)","Period(2)"
"TS","RN","","","","","","","","","","","","","","","","","","",""
"","","WVc","WVc","Avg","Avg","Avg","Tot","Avg","Tot","Smp","Smp","Smp","Avg","Avg","Avg","Avg","Smp","Smp","Smp","Smp"
"2017-01-22 00:00:00",271789,0.048,172.5,-8.31,82.5,0,0,863.9062,0,100.8,2.206,192,1.683,2.508,0.2504517,0,51.66,59.14,33.7,35.48
"2017-01-22 00:10:00",271790,0.378,124.3,-8.1,81.4,0,0,863.7796,0,100.7,2.205,191,1.683,2.508,0.671666,0,51.66,59.2,33.7,35.5
"2017-01-22 00:20:00",271791,0.509,108.5,-7.622,79.42,0,0,863.7333,0,100.7,2.203,192,1.684,2.5,0.8576075,0,51.66,59.2,33.7,35.5
"2017-01-22 00:30:00",271792,0.206,55.13,-7.244,78.28,0,0,863.767,0,100.6,2.204,191,1.691,2.534,0.7893025,0,51.66,59.2,33.7,35.5
"2017-01-22 00:40:00",271793,0.19,3.613,-7.398,81.3,0,0,863.98,0,100.4,2.207,192,1.7,2.553,0.3870618,0,51.66,59.2,33.7,35.5
"2017-01-22 00:50:00",271794,0.3,0.504,-7.752,82.9,0,0,863.9778,0,100.3,2.209,192,1.71,2.565,0,0,51.66,59.2,33.7,35.5
"2017-01-22 01:00:00",271795,0.225,338.1,-7.876,83.9,0,0,863.8788,0,100.4,2.208,190,1.7,2.554,0.04553668,0,51.66,59.2,33.7,35.5
"2017-01-22 01:10:00",271796,0.277,313,-7.865,84.6,0,0,863.9884,0,100.3,2.209,192,1.7,2.564,0.04174196,0,51.66,59.2,33.7,35.5
"2017-01-22 01:20:00",271797,0.408,149.3,-8.09,85,0,0,863.9695,0,100.3,2.208,192,1.707,2.577,0.1290206,0,51.66,59.2,33.7,35.5
"2017-01-22 01:30:00",271798,0.559,146.2,-7.358,80.6,0,0,863.9399,0,100.3,2.206,191,1.714,2.569,0.603361,0,51.66,59.2,33.7,35.5
"2017-01-22 01:40:00",271799,0.555,124.1,-6.96,77.93,0,0,863.902,0,100,2.208,191,1.736,2.596,0.5274665,0,51.66,59.2,33.7,35.5
"2017-01-22 01:50:00",271800,0.881,125.4,-6.872,76.32,0,0,863.9969,0,99.8,2.21,190,1.754,2.614,0.5654137,0,51.66,59.2,33.7,35.5
"2017-01-22 02:00:00",271801,0.988,135.5,-6.823,72.12,0,0,864.0011,0,99.8,2.209,190,1.793,2.599,0.5843874,0,51.66,59.2,33.7,35.5
"2017-01-22 02:10:00",271802,1.002,141.3,-6.95,70.55,0,0,863.8113,0,99.8,2.212,191,1.783,2.614,0.1555836,0,51.66,59.2,33.7,35.5
"2017-01-22 02:20:00",271803,0.837,147.8,-6.976,67.23,0,0,863.7248,0,100,2.208,190,1.78,2.592,0.1973256,0,51.66,59.2,33.7,35.5
"2017-01-22 02:30:00",271804,0.968,156.8,-6.946,66.2,0,0,863.6236,0,99.9,2.208,190,1.763,2.594,0.2618359,0,51.71,59.2,33.72,35.5
"2017-01-22 02:40:00",271805,0.762,153,-6.605,64.85,0,0,863.4611,0,99.4,2.213,192,1.767,2.599,0.5388507,0,51.66,59.2,33.7,35.5
"2017-01-22 02:50:00",271806,0.675,142,-6.678,65.01,0,0,863.3177,0,99.6,2.213,191,1.761,2.604,0.2580412,0,51.66,59.2,33.7,35.5
"2017-01-22 03:00:00",271807,0.803,151.8,-6.884,66.55,0,0,863.1595,0,99.6,2.211,190,1.773,2.586,0.2125045,0,51.66,59.2,33.7,35.5
"2017-01-22 03:10:00",271808,0.804,145,-6.529,66.44,0,0,862.9761,0,99.7,2.21,191,1.774,2.59,0.6109505,0,51.71,59.2,33.72,35.5
"2017-01-22 03:20:00",271809,0.776,133.3,-6.646,69.21,0,0,862.9656,0,99.1,2.216,189,1.774,2.572,0.398446,0,51.66,59.2,33.7,35.5
"2017-01-22 03:30:00",271810,1.036,144.6,-6.56,71.33,0,0,862.9318,0,99.5,2.21,192,1.81,2.613,0.8576075,0,51.66,59.2,33.7,35.5
"2017-01-22 03:40:00",271811,0.865,150,-5.914,71.59,0,0,862.9171,0,99.3,2.21,190,1.826,2.616,1.286411,0,51.71,59.2,33.72,35.5
"2017-01-22 03:50:00",271812,1.176,153.4,-5.626,72.28,0,0,862.7715,0,99.2,2.21,190,1.841,2.627,1.081496,0,51.66,59.2,33.7,35.5
"2017-01-22 04:00:00",271813,0.873,147.5,-5.559,72.51,0,0,862.8727,0,99.2,2.211,190,1.833,2.625,0.7968919,0,51.66,59.2,33.7,35.5
"2017-01-22 04:10:00",271814,1.181,147.7,-5.647,73.64,0,0,862.7125,0,99.2,2.211,190,1.822,2.614,0.4857246,0,51.66,59.2,33.7,35.5
"2017-01-22 04:20:00",271815,1.12,151.6,-5.588,75.19,0,0,862.7103,0,99.2,2.21,190,1.813,2.612,0.5274665,0,51.66,59.2,33.7,35.5
"2017-01-22 04:30:00",271816,0.943,150.2,-5.445,76.79,0,0,862.6576,0,99.1,2.211,191,1.812,2.589,0.4971088,0,51.66,59.2,33.7,35.5
"2017-01-22 04:40:00",271817,0.987,139.1,-5.466,77.68,0,0,862.6871,0,99.1,2.212,190,1.807,2.586,0.3756776,0,51.66,59.2,33.7,35.5
"2017-01-22 04:50:00",271818,0.55,138.7,-5.587,78.55,0,0,862.7125,0,98.9,2.214,191,1.807,2.585,0.2049151,0,51.66,59.2,33.7,35.5
"2017-01-22 05:00:00",271819,0.998,149.6,-5.696,80.1,0,0,862.7061,0,98.8,2.215,192,1.807,2.583,0.2011203,0,51.66,59.2,33.7,35.5
"2017-01-22 05:10:00",271820,0.866,152.9,-5.789,81.6,0,0,862.6723,0,98.8,2.216,192,1.807,2.581,0.2276834,0,51.66,59.2,33.7,35.5
"2017-01-22 05:20:00",271821,0.92,143.4,-5.833,82.5,0,0,862.666,0,98.7,2.217,192,1.807,2.579,0.2238887,0,51.66,59.2,33.7,35.5
"2017-01-22 05:30:00",271822,1.187,143.6,-5.925,83.4,0,0,862.4213,0,98.7,2.217,192,1.807,2.574,0.1176364,0,51.66,59.2,33.7,35.5
"2017-01-22 05:40:00",271823,1.037,144.8,-5.946,83.8,0,0,862.3897,0,98.6,2.218,192,1.807,2.573,0.2276834,0,51.66,59.2,33.7,35.5
"2017-01-22 05:50:00",271824,0.787,150.1,-5.973,84.9,0,0,862.4698,0,98.4,2.22,188,1.807,2.579,0.2276834,0,51.66,59.2,33.7,35.5
"2017-01-22 06:00:00",271825,1.126,141.2,-6.012,85.8,0,0,862.4741,0,98.3,2.222,176,1.807,2.571,0.2276834,0,51.66,59.2,33.7,35.5
"2017-01-22 06:10:00",271826,1.055,141.6,-6.031,86.3,0,0,862.4135,0,98.4,2.221,177,1.807,2.569,0.2200934,0,51.71,59.2,33.72,35.5
"2017-01-22 06:20:00",271827,1.086,140.4,-6.032,86.7,0,0,862.1984,0,98.3,2.221,189,1.804,2.572,0.2276804,0,51.66,59.2,33.7,35.5
"2017-01-22 06:30:00",271828,1.126,149.5,-5.974,85.9,0,0,862.1866,0,98.1,2.223,177,1.802,2.562,0.227679,0,51.66,59.2,33.7,35.5
"2017-01-22 06:40:00",271829,1.155,133.3,-5.889,85.1,0,0,862.1921,0,98,2.224,175,1.804,2.568,0.2276807,0,51.66,59.2,33.7,35.5
"2017-01-22 06:50:00",271830,1.027,134.3,-5.89,85.6,0,0,862.1915,0,97.9,2.225,176,1.806,2.572,0.3832656,0,51.66,59.2,33.7,35.5
"2017-01-22 07:00:00",271831,1.046,141.3,-5.898,86.7,0.05116315,0,862.1152,0,97.7,2.227,194,1.805,2.566,1.016982,1.205,51.66,59.2,33.7,35.5
"2017-01-22 07:10:00",271832,1.319,137,-5.88,87.1,0.6021458,0,861.9559,0,97.7,2.227,194,1.803,2.562,2.337512,4.321,51.66,59.2,33.7,35.5
"2017-01-22 07:20:00",271833,0.953,129.8,-5.879,87.4,2.003184,0,861.8913,0,97.6,2.228,194,1.799,2.553,4.24236,2.191,51.66,59.2,33.7,35.5
"2017-01-22 07:30:00",271834,0.873,121.1,-5.9,88.5,2.837546,0,861.7894,0,97.5,2.229,193,1.799,2.551,5.320082,1.887,51.66,59.2,33.7,35.5
"2017-01-22 07:40:00",271835,0.776,133.5,-5.905,88.8,3.506593,0,861.6519,0,97.6,2.228,177,1.8,2.551,6.333252,1.829,51.71,59.2,33.72,35.5
"2017-01-22 07:50:00",271836,1.103,136.2,-5.854,88.6,4.352694,0,861.66,0,97.7,2.227,181,1.798,2.553,7.839639,1.804,51.66,59.2,33.7,35.5
"2017-01-22 08:00:00",271837,1.134,135.4,-5.763,87.7,6.280806,0,861.6443,0,97.6,2.228,177,1.778,2.536,11.23148,1.787,51.66,59.2,33.7,35.5
"2017-01-22 08:10:00",271838,0.999,140.2,-5.741,88.2,11.32563,0,861.6323,0,97.3,2.231,192,1.769,2.522,19.21066,1.698,51.66,59.2,33.7,35.5
"2017-01-22 08:20:00",271839,0.965,142.8,-5.744,88.8,18.00668,0,861.5391,0,97.2,2.231,196,1.747,2.516,29.48026,1.638,51.66,59.2,33.7,35.5
"2017-01-22 08:30:00",271840,1.091,131.7,-5.701,89.5,30.15289,0,861.5322,0,97.6,2.228,194,1.719,2.522,48.50201,1.609,51.66,59.2,33.7,35.5
"2017-01-22 08:40:00",271841,1.145,114.2,-5.676,90.3,31.06764,0,861.4831,0,97.9,2.224,177,1.697,2.523,49.85311,1.602,51.66,59.2,33.7,35.5
"2017-01-22 08:50:00",271842,0.999,129.9,-5.638,90.9,32.79742,0,861.4018,0,98,2.223,189,1.684,2.532,51.98289,1.584,51.66,59.2,33.7,35.5
"2017-01-22 09:00:00",271843,0.978,133,-5.623,91,35.66884,0,861.4163,0,98,2.223,194,1.679,2.54,56.8223,1.59,51.71,59.2,33.72,35.5
"2017-01-22 09:10:00",271844,1.128,125.6,-5.633,91.4,46.70833,0,861.3572,0,97.9,2.224,189,1.677,2.535,74.14278,1.587,51.66,59.2,33.7,35.5
"2017-01-22 09:20:00",271845,1.225,140.6,-5.584,90.6,49.2498,0,861.3529,0,97.9,2.224,196,1.705,2.525,78.19779,1.587,51.71,59.2,33.72,35.5
"2017-01-22 09:30:00",271846,1.165,127.3,-5.415,87.9,52.53492,0,861.3318,0,97.8,2.224,196,1.716,2.511,83.34924,1.578,51.66,59.2,33.7,35.5
"2017-01-22 09:40:00",271847,0.93,125.5,-5.359,87.4,54.12045,0,861.237,0,97.7,2.225,196,1.725,2.502,86.03498,1.586,51.66,59.2,33.7,35.5
"2017-01-22 09:50:00",271848,0.822,139.6,-5.212,85.1,60.87174,0,861.1042,0,97.6,2.225,196,1.718,2.511,97.20663,1.595,51.66,59.2,33.7,35.5
"2017-01-22 10:00:00",271849,0.82,128,-5.028,83.9,68.18956,0,860.9144,0,97.5,2.225,196,1.719,2.534,109.0839,1.6,51.71,59.2,33.72,35.5
"2017-01-22 10:10:00",271850,0.617,137.9,-4.679,83,90.42238,0,860.6909,0,97.3,2.225,189,1.727,2.569,146.6198,1.619,51.66,59.26,33.7,35.51
"2017-01-22 10:20:00",271851,0.843,140.7,-4.479,81.6,85.79956,0,860.5686,0.5,97.3,2.225,195,1.752,2.574,135.2016,1.574,51.71,59.2,33.72,35.5
"2017-01-22 10:30:00",271852,0.82,102.9,-4.577,83.2,75.41296,0,860.343,0,97.4,2.225,196,1.756,2.564,118.5674,1.571,51.66,59.2,33.7,35.5
"2017-01-22 10:40:00",271853,0.696,136.1,-4.566,83.3,70.54616,0,860.0982,0,97.5,2.224,194,1.738,2.542,109.8918,1.555,51.71,59.2,33.72,35.5
"2017-01-22 10:50:00",271854,1.054,133.4,-4.562,83.6,98.53629,0,859.8797,0,97.5,2.223,210,1.715,2.534,154.3544,1.566,51.66,59.2,33.7,35.5
"2017-01-22 11:00:00",271855,0.906,123.5,-4.521,82.4,86.91886,0,859.759,0,97.6,2.222,216,1.694,2.513,127.6005,1.494,51.66,59.2,33.7,35.5
"2017-01-22 11:10:00",271856,1.077,111.8,-4.321,82.1,113.6843,0,859.5486,0,97.4,2.222,192,1.682,2.496,193.0727,1.684,51.66,59.2,33.7,35.5
"2017-01-22 11:20:00",271857,0.764,121.1,-3.788,79.45,100.7174,0,859.4988,0,97.4,2.222,192,1.724,2.511,163.7387,1.582,51.66,59.2,33.7,35.5
"2017-01-22 11:30:00",271858,0.739,117.9,-4.124,82.3,68.54102,0,859.3309,0,97.4,2.223,192,1.721,2.5,106.1322,1.543,51.66,59.2,33.7,35.5
"2017-01-22 11:40:00",271859,0.582,122.8,-4.132,83.4,105.3649,0,859.1472,0,97.3,2.223,193,1.718,2.497,168.4322,1.591,51.71,59.2,33.72,35.5
"2017-01-22 11:50:00",271860,0.519,131,-3.744,82.4,105.4824,0,858.9827,0,97,2.225,195,1.717,2.496,166.5469,1.577,51.66,59.2,33.7,35.5
"2017-01-22 12:00:00",271861,0.607,136.9,-3.914,82.3,80.12253,0,858.7698,0,96,2.237,188,1.717,2.495,123.252,1.532,51.71,59.2,33.72,35.5
"2017-01-22 12:10:00",271862,0.906,145.3,-4.23,84.6,89.00317,0,858.5317,0,96.7,2.23,190,1.717,2.495,141.0257,1.559,51.66,59.2,33.7,35.5
"2017-01-22 12:20:00",271863,0.667,124.4,-4.036,83.1,67.84378,0,858.4453,0,96.8,2.229,176,1.717,2.497,105.4403,1.553,51.66,59.2,33.7,35.5
"2017-01-22 12:30:00",271864,0.818,138.8,-4.139,82.9,67.07291,0,858.2387,0,96.7,2.23,175,1.717,2.495,104.2344,1.55,51.66,59.2,33.7,35.5
"2017-01-22 12:40:00",271865,0.83,135.5,-4.183,82.6,63.77708,0,858.0616,0,97.1,2.227,172,1.717,2.495,98.88747,1.55,51.66,59.2,33.7,35.5
"2017-01-22 12:50:00",271866,0.57,140.7,-4.243,83.6,43.17617,0,857.9584,0,96.7,2.23,193,1.717,2.495,67.71993,1.561,51.66,59.2,33.7,35.5
"2017-01-22 13:00:00",271867,0.796,133.4,-4.252,84.9,46.38941,0,857.7434,0,96.7,2.23,193,1.717,2.495,72.17568,1.553,51.66,59.2,33.7,35.5
"2017-01-22 13:10:00",271868,0.879,138.7,-4.304,86,35.84118,0,857.6043,0,96.7,2.231,195,1.717,2.495,55.4903,1.545,51.71,59.2,33.72,35.5
"2017-01-22 13:20:00",271869,0.759,129.5,-4.335,85.6,37.1076,0,857.4547,0,96.5,2.233,179,1.717,2.495,57.99311,1.558,51.71,59.2,33.72,35.5
"2017-01-22 13:30:00",271870,0.693,137.5,-4.351,85.9,38.68865,0,857.4462,0,95.9,2.239,193,1.717,2.495,60.91684,1.571,51.66,59.2,33.7,35.5
"2017-01-22 13:40:00",271871,0.711,127.3,-4.301,87.7,60.07222,0,857.2776,0,96.1,2.236,180,1.717,2.495,97.1886,1.616,51.66,59.2,33.7,35.5
"2017-01-22 13:50:00",271872,0.848,132.1,-4.343,89.3,50.64489,0,857.0837,0,95.9,2.239,176,1.717,2.495,79.97231,1.578,51.66,59.2,33.7,35.5
"2017-01-22 14:00:00",271873,0.835,132.5,-4.224,89.7,59.9031,0,856.9593,0,95.9,2.238,185,1.717,2.495,95.59212,1.593,51.66,59.2,33.7,35.5
"2017-01-22 14:10:00",271874,0.806,131.6,-4.203,88.3,44.45832,0,856.8687,0,96.1,2.237,196,1.717,2.495,70.84464,1.589,51.66,59.2,33.7,35.5
"2017-01-22 14:20:00",271875,0.872,121,-4.364,89.1,38.10657,0,856.7275,0,95.7,2.241,192,1.717,2.495,60.58693,1.585,51.66,59.2,33.7,35.5
"2017-01-22 14:30:00",271876,0.69,151,-4.464,89.8,21.71001,0,856.7107,0,96.5,2.234,195,1.717,2.496,33.59452,1.547,51.66,59.2,33.7,35.5
"2017-01-22 14:40:00",271877,0.637,92.5,-4.571,90.8,13.18726,0,856.7148,0,97,2.229,187,1.717,2.497,20.62921,1.555,51.71,59.2,33.72,35.5
"2017-01-22 14:50:00",271878,0.512,130.1,-4.576,93.8,15.86954,0,856.7148,0,97,2.229,174,1.717,2.505,25.89648,1.631,51.71,59.2,33.72,35.5
"2017-01-22 15:00:00",271879,0.506,114.3,-4.643,95.7,12.89622,0,856.7148,0,97.1,2.228,197,1.715,2.524,21.77444,1.688,51.66,59.2,33.7,35.5
"2017-01-22 15:10:00",271880,0.479,99.7,-4.656,97.4,10.29652,0,856.7148,0,97.4,2.225,198,1.718,2.538,18.06193,1.754,51.66,59.26,33.7,35.51
"2017-01-22 15:20:00",271881,0.404,128.4,-4.656,97.8,9.785235,0,856.7191,0,97.3,2.226,180,1.723,2.538,17.71685,1.809,51.66,59.2,33.7,35.5
"2017-01-22 15:30:00",271882,0.572,101.3,-4.682,98.4,9.34081,0,856.7213,0,97.6,2.223,194,1.725,2.534,17.53483,1.875,51.66,59.26,33.7,35.51
"2017-01-22 15:40:00",271883,0.646,84.1,-4.709,98.4,13.78114,0,856.8076,0,97.5,2.224,181,1.666,2.498,26.40842,1.904,51.66,59.2,33.7,35.5
"2017-01-22 15:50:00",271884,0.533,108.1,-4.608,97.1,11.83038,0,856.7654,0,97.9,2.22,189,1.653,2.471,22.71109,1.918,51.66,59.2,33.7,35.5
"2017-01-22 16:00:00",271885,0.441,102.7,-4.59,96.6,15.83021,0,856.7317,0,97.8,2.22,190,1.649,2.468,31.09929,1.962,51.66,59.26,33.7,35.51
"2017-01-22 16:10:00",271886,0.594,122.7,-4.554,96,16.3533,0,856.7148,0,97.9,2.22,189,1.637,2.456,31.97528,1.953,51.66,59.26,33.7,35.51
"2017-01-22 16:20:00",271887,0.677,107.4,-4.631,95.9,4.684171,0,856.7148,0,97.8,2.221,191,1.647,2.456,8.407162,1.771,51.66,59.26,33.7,35.51
"2017-01-22 16:30:00",271888,0.479,105.3,-4.68,96.1,3.34696,0,856.7148,0,97.8,2.221,175,1.659,2.459,5.832303,1.742,51.71,59.26,33.72,35.51
"2017-01-22 16:40:00",271889,0.51,64.44,-4.744,99.1,3.913308,0,856.7781,0.5,97.8,2.221,190,1.68,2.471,7.519802,1.918,51.66,59.26,33.7,35.51
"2017-01-22 16:50:00",271890,0.532,102.3,-4.739,100,3.55934,0,856.7971,0,98,2.219,193,1.69,2.485,7.030617,1.907,51.71,59.26,33.72,35.51
"2017-01-22 17:00:00",271891,0.602,59.91,-4.805,100,1.301814,0,856.9678,0,97.7,2.223,194,1.703,2.487,2.389045,1.823,51.66,59.26,33.7,35.51
"2017-01-22 17:10:00",271892,0.27,47.21,-4.906,100,0.5348843,0,856.9678,0,97.8,2.222,190,1.698,2.492,0.8949436,1.699,51.71,59.26,33.72,35.51
"2017-01-22 17:20:00",271893,0.515,39.22,-5.012,100,0.1966486,0,856.9678,0,98.1,2.22,170,1.696,2.496,0.1592696,0.675,51.71,59.26,33.72,35.51
"2017-01-22 17:30:00",271894,0.615,44.87,-5.087,100,0,0,856.9698,0,98.1,2.22,174,1.677,2.494,0,0,51.66,59.2,33.7,35.5
"2017-01-22 17:40:00",271895,0.572,49.47,-5.118,100,0,0,856.9678,0,98,2.221,170,1.659,2.494,0,0,51.71,59.2,33.72,35.5
"2017-01-22 17:50:00",271896,0.457,30.34,-5.178,100,0,0,857.0605,0,97.7,2.224,178,1.652,2.496,0,0,51.66,59.26,33.7,35.51
"2017-01-22 18:00:00",271897,0.476,58.59,-5.257,100,0,0,857.1237,0,97.7,2.225,179,1.64,2.493,0,0,51.66,59.26,33.7,35.51
"2017-01-22 18:10:00",271898,0.564,48.13,-5.385,100,0,0,857.2039,0,97.5,2.227,198,1.633,2.49,0,0,51.71,59.26,33.72,35.51
"2017-01-22 18:20:00",271899,0.337,58.68,-5.451,99.3,0,0,857.2143,0,97.4,2.228,201,1.63,2.464,0,0,51.66,59.26,33.7,35.51
"2017-01-22 18:30:00",271900,0.42,49.39,-5.508,99.4,0,0,857.2607,0.5,97.4,2.229,202,1.634,2.452,0,0,51.66,59.2,33.7,35.5
"2017-01-22 18:40:00",271901,0.485,57.84,-5.622,100,0,0,857.1933,0,97.8,2.225,237,1.643,2.458,0,0,51.66,59.26,33.7,35.51
"2017-01-22 18:50:00",271902,0.263,42.63,-5.744,100,0,0,857.1279,0,97.4,2.23,195,1.648,2.456,0,0,51.66,59.26,33.7,35.51
"2017-01-22 19:00:00",271903,0.137,160.2,-5.751,99.7,0,0,857.227,0,97.4,2.23,192,1.652,2.44,0,0,51.71,59.26,33.72,35.51
"2017-01-22 19:10:00",271904,0.178,149.9,-5.75,99.9,0,0,857.2228,0,97.3,2.231,194,1.664,2.444,0,0,51.66,59.26,33.7,35.51
"2017-01-22 19:20:00",271905,0.292,134.8,-5.79,100,0,0,857.2252,0,97.3,2.231,204,1.672,2.453,0,0,51.66,59.26,33.7,35.51
"2017-01-22 19:30:00",271906,0.263,56.79,-5.905,100,0,0,857.1636,0,97.5,2.229,217,1.677,2.454,0,0,51.66,59.26,33.7,35.51
"2017-01-22 19:40:00",271907,0.119,102.5,-6.024,100,0,0,857.2357,0,97.3,2.232,195,1.694,2.457,0,0,51.66,59.26,33.7,35.51
"2017-01-22 19:50:00",271908,0.07,31.91,-6.072,100,0,0,857.2677,0,97.2,2.233,199,1.712,2.479,0,0,51.66,59.26,33.7,35.51
"2017-01-22 20:00:00",271909,0.367,101.1,-6.22,100,0.1298201,0,857.2888,0,97.2,2.234,196,1.724,2.499,0,0,51.66,59.26,33.7,35.51
"2017-01-22 20:10:00",271910,0.032,292.1,-6.365,99.6,0.01966992,0,857.3206,0,97.1,2.235,189,1.726,2.51,0,0,51.66,59.26,33.7,35.51
"2017-01-22 20:20:00",271911,0.265,117.4,-6.434,99.3,0,0,857.4216,0,97.2,2.235,182,1.717,2.52,0,0,51.66,59.26,33.7,35.51
"2017-01-22 20:30:00",271912,0.045,24.44,-6.503,100,0,0,857.2977,0,97.1,2.236,186,1.689,2.53,0,0,51.71,59.26,33.72,35.51
"2017-01-22 20:40:00",271913,0.353,72.08,-6.623,99.9,0,0,857.078,0,97.1,2.236,194,1.678,2.535,0,0,51.71,59.26,33.72,35.51
"2017-01-22 20:50:00",271914,0.197,117,-6.785,97.1,0.007868536,0,857.0491,0,97.1,2.237,189,1.673,2.535,0,0,51.71,59.26,33.72,35.51
"2017-01-22 21:00:00",271915,0.171,23.44,-6.886,96.2,0,0,857.0427,0,97.1,2.237,189,1.682,2.531,0,0,51.71,59.26,33.72,35.51
"2017-01-22 21:10:00",271916,0.028,67.47,-6.976,95,0,0,857.051,0,97,2.239,183,1.701,2.53,0,0,51.71,59.26,33.72,35.51
"2017-01-22 21:20:00",271917,0.215,173.7,-7.305,94,0,0,857.0126,0,97,2.24,188,1.717,2.521,0,0,51.66,59.26,33.7,35.51
"2017-01-22 21:30:00",271918,0.049,217.3,-7.293,93.2,0,0,856.8132,0,97,2.24,190,1.718,2.505,0,0,51.71,59.26,33.72,35.51
"2017-01-22 21:40:00",271919,0.049,348.9,-7.3,92,0,0,856.8156,0,96.9,2.241,189,1.718,2.494,0,0,51.66,59.26,33.7,35.51
"2017-01-22 21:50:00",271920,0.03,348.4,-7.27,90.5,0,0,856.746,0,97,2.241,177,1.718,2.499,0,0,51.66,59.26,33.7,35.51
"2017-01-22 22:00:00",271921,0.079,159.1,-7.36,91.2,0,0,856.5984,0,97,2.24,192,1.718,2.497,0,0,51.71,59.26,33.72,35.51
"2017-01-22 22:10:00",271922,0,0,-7.328,91.6,0,0,856.5499,0,97.1,2.24,191,1.718,2.497,0.003793427,0,51.66,59.26,33.7,35.51
"2017-01-22 22:20:00",271923,0,0,-7.412,93.3,0,0,856.3686,0,97.1,2.24,189,1.718,2.497,0,0,51.71,59.26,33.72,35.51
"2017-01-22 22:30:00",271924,0,0,-7.565,93.3,0,0,856.3202,0,97.2,2.24,190,1.718,2.497,0,0,51.71,59.26,33.72,35.51
"2017-01-22 22:40:00",271925,0,0,-7.735,94.4,0,0,856.3011,0,97.2,2.24,192,1.718,2.497,0,0,51.71,59.26,33.72,35.51
"2017-01-22 22:50:00",271926,0,0,-7.698,94.7,0,0,856.3117,0,97.1,2.241,191,1.72,2.505,0,0,51.71,59.26,33.72,35.51
"2017-01-22 23:00:00",271927,0.068,55.47,-7.693,94.6,0,0,856.4318,0.5,97.2,2.24,171,1.722,2.507,0.1213897,0,51.71,59.26,33.72,35.51
"2017-01-22 23:10:00",271928,0.36,324.3,-7.679,97.6,0,0,856.6765,0.5,97.8,2.233,227,1.725,2.516,0.2276056,0,51.71,59.26,33.72,35.51
"2017-01-22 23:20:00",271929,0.339,232.2,-7.59,97.1,0,0,856.7966,0.5,98.3,2.228,232,1.729,2.523,0.2276056,0,51.66,59.26,33.7,35.51
"2017-01-22 23:30:00",271930,0.37,277.2,-7.553,95.9,0,0,856.7755,0,98.2,2.229,194,1.728,2.525,0.2276056,0,51.71,59.26,33.72,35.51
"2017-01-22 23:40:00",271931,0.388,251.5,-7.611,95,0,0,856.6279,0,98.7,2.224,181,1.741,2.534,0.1820845,0,51.71,59.26,33.72,35.51
"2017-01-22 23:50:00",271932,0.363,258.2,-7.675,96.8,0,0,856.5499,0,99,2.222,193,1.731,2.534,0.1100094,0,51.66,59.26,33.7,35.51
